Weather History for Chipley, FL

Change the Weather History Date:

Friday, January 11, 2013

  Actual Average (KMAI) Record (KMAI)
Temperature  
Mean Temperature 70 °F 50 °F  
Max Temperature 75 °F 61 °F 81 °F (2013)
Min Temperature 64 °F 39 °F 26 °F (1999)
Degree Days  
Heating Degree Days 0    
Month to date heating degree days  
Since 1 July heating degree days  
Cooling Degree Days 4    
Month to date cooling degree days  
Year to date cooling degree days  
Growing Degree Days 20 (Base 50)    
Moisture  
Dew Point 68 °F    
Average Humidity 91    
Maximum Humidity 100    
Minimum Humidity 78    
Precipitation  
Precipitation 0.05 in 0.13 in 0.51 in (2014)
Month to date precipitation 1.73  
Year to date precipitation 1.73  
Sea Level Pressure  
Sea Level Pressure 30.06 in    
Wind  
Wind Speed 9 mph (South)    
Max Wind Speed 16 mph    
Max Gust Speed 29 mph    
Visibility 7 miles    
Events      
T = Trace of Precipitation, MM = Missing Value Source: NWS Daily Summary

Daily Weather History Graph

Daily Weather History Graph

Search for Another Location

Airport:

Trip Planner

Search our weather history database for the weather conditions in past years. The results will help you decide how hot, cold, wet, or windy it might be!

Date:

Astronomy

Jan. 11, 2013 Rise Set
Actual Time 6:41 AM CST 5:00 PM CST
Civil Twilight 6:14 AM CST 5:26 PM CST
Nautical Twilight 5:45 AM CST 5:56 PM CST
Astronomical Twilight 5:15 AM CST 6:25 PM CST
Moon 6:16 AM CST (1/11) 5:13 PM CST (1/11)
Length of Visible Light 11h 11m
Length of Day
10h 19m
Waning Crescent, 0% of the Moon is Illuminated
Jan 11
Waning Crescent
Jan 11
New
Jan 18
First Quarter
Jan 26
Full
Feb 3
Last Quarter

Hourly Weather History & Observations

Time (CST) Temp. Dew Point Humidity Pressure Visibility Wind Dir Wind Speed Gust Speed Precip Events Conditions
12:15 AM 64.4 °F 64.4 °F 100% 30.10 in 3.0 mi South 10.4 mph 16.1 mph N/A   Overcast
12:35 AM 64.4 °F 62.6 °F 94% 30.10 in 7.0 mi South 11.5 mph 18.4 mph N/A   Overcast
12:55 AM 66.2 °F 64.4 °F 94% 30.09 in 9.0 mi South 15.0 mph 20.7 mph N/A   Overcast
1:15 AM 66.2 °F 64.4 °F 94% 30.09 in 9.0 mi South 12.7 mph 18.4 mph N/A   Overcast
1:35 AM 66.2 °F 64.4 °F 94% 30.08 in 8.0 mi South 10.4 mph - N/A   Overcast
1:55 AM 66.2 °F 64.4 °F 94% 30.08 in 8.0 mi South 12.7 mph - N/A   Mostly Cloudy
2:15 AM 66.2 °F 64.4 °F 94% 30.08 in 8.0 mi South 10.4 mph 16.1 mph N/A   Overcast
2:35 AM 66.2 °F 64.4 °F 94% 30.07 in 7.0 mi South 8.1 mph - N/A   Overcast
2:55 AM 66.2 °F 64.4 °F 94% 30.07 in 7.0 mi South 5.8 mph - N/A   Overcast
3:15 AM 66.2 °F 64.4 °F 94% 30.07 in 8.0 mi South 6.9 mph - N/A   Overcast
3:35 AM 66.2 °F 64.4 °F 94% 30.06 in 8.0 mi South 9.2 mph - N/A   Overcast
3:55 AM 66.2 °F 64.4 °F 94% 30.06 in 8.0 mi South 6.9 mph - N/A   Overcast
4:15 AM 66.2 °F 64.4 °F 94% 30.06 in 8.0 mi South 5.8 mph - N/A   Overcast
4:35 AM 66.2 °F 64.4 °F 94% 30.07 in 8.0 mi SSE 8.1 mph - N/A   Overcast
4:55 AM 66.2 °F 64.4 °F 94% 30.06 in 8.0 mi SSE 6.9 mph - N/A   Overcast
5:15 AM 66.2 °F 64.4 °F 94% 30.07 in 8.0 mi SSE 8.1 mph - N/A   Overcast
5:35 AM 66.2 °F 64.4 °F 94% 30.07 in 8.0 mi South 5.8 mph - N/A   Overcast
5:55 AM 66.2 °F 64.4 °F 94% 30.07 in 8.0 mi SSE 5.8 mph - N/A   Overcast
6:15 AM 66.2 °F 64.4 °F 94% 30.08 in 9.0 mi SSE 9.2 mph - N/A   Overcast
6:35 AM 66.2 °F 64.4 °F 94% 30.09 in 8.0 mi ESE 3.5 mph - N/A   Overcast
6:55 AM 66.2 °F 64.4 °F 94% 30.08 in 9.0 mi SE 6.9 mph - N/A   Overcast
7:15 AM 66.2 °F 64.4 °F 94% 30.09 in 6.0 mi South 5.8 mph - N/A   Overcast
7:35 AM 66.2 °F 64.4 °F 94% 30.09 in 5.0 mi South 4.6 mph - N/A   Overcast
7:55 AM 66.2 °F 64.4 °F 94% 30.10 in 5.0 mi South 4.6 mph - N/A   Overcast
8:15 AM 68.0 °F 66.2 °F 94% 30.09 in 7.0 mi SE 3.5 mph - N/A   Overcast
8:35 AM 68.0 °F 66.2 °F 94% 30.11 in 4.0 mi South 6.9 mph - 0.01 in   Overcast
8:55 AM 68.0 °F 66.2 °F 94% 30.12 in 7.0 mi SSW 5.8 mph - 0.02 in   Overcast
9:15 AM 68.0 °F 66.2 °F 94% 30.12 in 3.0 mi Calm Calm - 0.01 in   Overcast
9:35 AM 69.8 °F 66.2 °F 88% 30.11 in 9.0 mi SSE 4.6 mph - 0.02 in   Mostly Cloudy
9:55 AM 69.8 °F 68.0 °F 94% 30.11 in 9.0 mi South 6.9 mph - 0.02 in   Overcast
10:15 AM 69.8 °F 68.0 °F 94% 30.10 in 7.0 mi South 11.5 mph - N/A   Overcast
10:35 AM 71.6 °F 68.0 °F 88% 30.09 in 10.0 mi South 11.5 mph 21.9 mph N/A   Overcast
10:55 AM 71.6 °F 69.8 °F 94% 30.09 in 10.0 mi South 11.5 mph 19.6 mph N/A   Overcast
11:15 AM 73.4 °F 69.8 °F 88% 30.08 in 9.0 mi South 13.8 mph 24.2 mph N/A   Overcast
11:55 AM 73.4 °F 69.8 °F 88% 30.06 in 9.0 mi South 13.8 mph 20.7 mph N/A   Mostly Cloudy
12:15 PM 75.2 °F 69.8 °F 83% 30.05 in 9.0 mi South 13.8 mph 28.8 mph N/A   Mostly Cloudy
12:35 PM 75.2 °F 68.0 °F 78% 30.04 in 10.0 mi South 16.1 mph 25.3 mph N/A   Mostly Cloudy
12:55 PM 75.2 °F 69.8 °F 83% 30.04 in 10.0 mi South 13.8 mph 20.7 mph N/A   Overcast
1:15 PM 75.2 °F 69.8 °F 83% 30.03 in 10.0 mi South 15.0 mph 21.9 mph N/A   Overcast
1:35 PM 75.2 °F 69.8 °F 83% 30.02 in 10.0 mi South 11.5 mph 23.0 mph N/A   Mostly Cloudy
1:55 PM 75.2 °F 69.8 °F 83% 30.02 in 10.0 mi South 13.8 mph 23.0 mph N/A   Overcast
2:15 PM 75.2 °F 69.8 °F 83% 30.02 in 10.0 mi South 11.5 mph 18.4 mph N/A   Mostly Cloudy
2:35 PM 75.2 °F 69.8 °F 83% 30.02 in 10.0 mi South 11.5 mph 20.7 mph N/A   Unknown
2:55 PM 75.2 °F 69.8 °F 83% 30.02 in 9.0 mi South 9.2 mph 18.4 mph N/A   Overcast
3:15 PM 75.2 °F 69.8 °F 83% 30.03 in 9.0 mi South 12.7 mph 18.4 mph N/A   Overcast
3:35 PM 73.4 °F 69.8 °F 88% 30.03 in 8.0 mi South 10.4 mph 23.0 mph N/A   Overcast
3:55 PM 73.4 °F 69.8 °F 88% 30.03 in 8.0 mi South 9.2 mph 17.3 mph N/A   Overcast
4:15 PM 73.4 °F 69.8 °F 88% 30.03 in 8.0 mi South 10.4 mph - N/A   Overcast
4:35 PM 73.4 °F 69.8 °F 88% 30.03 in 8.0 mi South 10.4 mph 16.1 mph N/A   Overcast
4:55 PM 73.4 °F 69.8 °F 88% 30.04 in 8.0 mi SSW 6.9 mph - N/A   Overcast
5:15 PM 73.4 °F 69.8 °F 88% 30.04 in 5.0 mi South 8.1 mph 16.1 mph N/A   Overcast
5:35 PM 71.6 °F 69.8 °F 94% 30.04 in 8.0 mi South 9.2 mph - 0.01 in   Overcast
5:55 PM 71.6 °F 69.8 °F 94% 30.04 in 7.0 mi South 6.9 mph - 0.01 in   Overcast
6:15 PM 71.6 °F 69.8 °F 94% 30.04 in 7.0 mi South 8.1 mph - N/A   Overcast
6:35 PM 71.6 °F 69.8 °F 94% 30.04 in 7.0 mi South 8.1 mph - N/A   Overcast
6:55 PM 71.6 °F 69.8 °F 94% 30.05 in 6.0 mi South 6.9 mph - N/A   Overcast
7:15 PM 73.4 °F 69.8 °F 88% 30.06 in 7.0 mi South 8.1 mph - N/A   Overcast
7:35 PM 73.4 °F 69.8 °F 88% 30.06 in 7.0 mi South 6.9 mph - N/A   Overcast
7:55 PM 73.4 °F 69.8 °F 88% 30.06 in 7.0 mi South 6.9 mph - N/A   Overcast
8:15 PM 73.4 °F 69.8 °F 88% 30.06 in 7.0 mi South 6.9 mph - N/A   Overcast
8:35 PM 73.4 °F 69.8 °F 88% 30.06 in 7.0 mi South 8.1 mph - N/A   Overcast
9:15 PM 71.6 °F 69.8 °F 94% 30.06 in 5.0 mi South 6.9 mph - N/A   Overcast
9:35 PM 71.6 °F 69.8 °F 94% 30.06 in 3.0 mi South 9.2 mph - N/A   Overcast
9:55 PM 71.6 °F 69.8 °F 94% 30.06 in 2.5 mi South 6.9 mph - N/A   Overcast
10:15 PM 71.6 °F 69.8 °F 94% 30.06 in 2.0 mi South 4.6 mph - N/A   Overcast
10:35 PM 69.8 °F 69.8 °F 100% 30.06 in 1.0 mi South 6.9 mph - N/A   Overcast
10:55 PM 71.6 °F 69.8 °F 94% 30.06 in 1.5 mi South 5.8 mph - N/A   Overcast
11:35 PM 71.6 °F 69.8 °F 94% 30.04 in 4.0 mi South 8.1 mph - N/A   Overcast
11:55 PM 71.6 °F 69.8 °F 94% 30.04 in 5.0 mi South 10.4 mph - N/A   Overcast